Location: Caltech
(34.1382°N, 118.1253°W)
Time: 18:48:21
(UTC-08:00)

Iridium 65 - Visible Passes

Search period start: 20 February 2017 00:00
Search period end: 02 March 2017 00:00
Orbit: 776 x 779 km, 86.4° (Epoch: 20 February)

Date Brightness Start Highest point End Pass type
(mag) Time Alt. Az. Time Alt. Az. Time Alt. Az.
20 Feb 7.3 18:16:40 10° ENE 18:17:55 11° ENE 18:18:49 10° E visible
20 Feb 5.7 19:53:54 10° N 19:59:05 68° W 19:59:27 66° WSW visible
21 Feb 5.4 19:20:25 10° N 19:25:35 62° E 19:30:44 10° SSE visible
21 Feb 8.5 21:03:48 10° WNW 21:05:39 12° W 21:07:30 10° W visible
22 Feb 6.2 18:47:20 10° NNE 18:51:58 32° E 18:56:34 10° SE visible
22 Feb 7.7 20:28:23 10° NNW 20:32:26 23° W 20:36:30 10° SW visible
23 Feb 6.9 18:14:56 10° NE 18:18:13 17° ENE 18:21:29 10° ESE visible
23 Feb 6.5 19:54:11 10° NNW 19:59:08 45° W 20:04:03 10° SSW visible
24 Feb 5.5 19:20:27 10° N 19:25:41 88° W 19:30:54 10° S visible
25 Feb 5.7 18:47:06 10° N 18:52:08 47° E 18:57:09 10° SSE visible
25 Feb 8.3 20:29:20 10° NW 20:32:22 16° W 20:35:24 10° WSW visible
26 Feb 6.5 18:14:14 10° NNE 18:18:28 25° E 18:22:41 10° SE visible
26 Feb 7.3 19:54:37 10° NNW 19:59:07 30° W 20:03:36 10° SW visible
27 Feb 6.1 19:20:37 10° N 19:25:45 59° W 19:30:52 10° SSW visible
28 Feb 5.4 18:47:03 10° N 18:52:16 71° E 18:57:28 10° S visible
28 Feb 8.8 20:31:57 10° WNW 20:32:14 10° WNW 20:32:32 10° W visible
01 Mar 6.1 18:13:52 10° NNE 18:18:40 36° E 18:23:27 10° SSE visible
01 Mar 8.1 19:55:18 10° NW 19:59:04 20° W 20:02:50 10° SW visible
